Airfield :
LOGIN :

Register | Disclaimer

   EN    FR    IT 

 










Legend :    VFR   Marginal VFR   IFR   Intensive IFR   Very Intensive IFR
Visi :
Ceiling :
>= 8 km
>= 3000ft
5 to 8 km
1000 to 3000 ft
1500m to 5 km
500 to 1000 ft
800 to 1500m
200 to 500 ft
< 800m
< 200 ft
Symbols :   Thunderstorms  Fog  Heavy snow  Heavy precipitations  Wind > 20 kt
SIGMETs :     Misc.  Thunderstorms  Icing  Turbulence  Mountain Waves  Volcanic Ashes







- Airport Elevation : 453 ft
- IATA code : SBK
- Download approach charts


LFRT - St Brieuc Armor

CURRENT METAR :
  • 221530Z AUTO 04008KT CAVOK 13/09 Q1027

EXPIRED METARs :
  • 221500Z AUTO 05007KT CAVOK 14/09 Q1027
  • 221430Z AUTO 04006KT 010V070 CAVOK 15/10 Q1027
  • 221400Z AUTO 07006KT 040V120 9999 FEW039 15/10 Q1027
  • 221330Z AUTO 06006KT 9999 FEW029 14/09 Q1028
  • 221300Z AUTO 09003KT 040V180 9999 BKN027 BKN033 15/09 Q1028

Expired Forecast.
No reported NOTAMs for that airfield.



MET'MAP, your aeronautical weather chart ! - Copyright ORBIFLY December 2007 - Disclaimer

ORBIFLY MET'MAP TEAM :

Programming & Development : Alexandra Zaïnal
Concept & Development : Baudouin d'Aumeries
Co-Development & Prog : Marc-Olivier Méhu
Technical & hardware support : Manuel Goepfert

Contact : metmap@orbifly.com




SOURCES & CREDITS :

   NOAA